Location: Arborea
(39.7744°N, 8.5819°E)
Time: 02:58:46
(UTC+00:00)

USA 229 - Pass Details

Date: 01 June 2022
Orbit: 938 x 1274 km, 63.4° (Epoch: 24 May)

Event Time Altitude Azimuth Distance (km) Brightness Sun altitude
Rises 19:49:20 0° 328° (NNW) 3,896 8.3 -10.5°
Reaches altitude 10° 19:53:38 10° 353° (N) 3,015 6.8 -11.1°
Maximum altitude 19:57:14 14° 24° (NNE) 2,774 6.1 -11.6°
Drops below altitude 10° 20:00:55 10° 54° (NE) 3,132 6.0 -12.1°
Sets 20:05:32 0° 78° (ENE) 4,157 6.5 -12.8°
